Location: B?jaj?g
(11.7167°N, 92.6667°E)
Time: 03:13:28
(UTC+00:00)

Landsat 5 - Pass Details

Date: 18 September 2020
Orbit: 528 x 655 km, 98.2° (Epoch: 18 October)

Event Time Altitude Azimuth Distance (km) Brightness Sun altitude
Rises 21:58:47 0° 169° (S) 2,914 7.1 -25.2°
Reaches altitude 10° 22:00:57 10° 169° (S) 2,021 6.2 -24.7°
Maximum altitude 22:05:23 85° 256° (WSW) 653 3.5 -23.6°
Drops below altitude 10° 22:09:54 10° 347° (NNW) 2,056 6.2 -22.5°
Sets 22:12:07 0° 348° (NNW) 2,968 7.0 -21.9°
